Regional Weather Roundup
Issued by NWS Raleigh/Durham, NC

Home | Current Version | Previous Version | Text Only | Print | Product List | Glossary On
Versions: 1 2 3 4 5 6 7 8 9 10 11 12 13 14 15 16 17 18 19 20 21 22 23 24 25 26 27 28 29 30 31 32 33 34 35 36 37 38 39 40 41 42 43 44 45 46 47 48 49 50
000
ASUS42 KRAH 300210
RWRRAH
NORTH CAROLINA WEATHER ROUNDUP
NATIONAL WEATHER SERVICE RALEIGH NC
1000 PM EDT TUE JUL 29 2014

NOTE: "FAIR" INDICATES FEW OR NO CLOUDS BELOW 12,000 FEET WITH NO
SIGNIFICANT WEATHER AND/OR OBSTRUCTIONS TO VISIBILITY.

NCZ001-053-055-056-065-067-300300-
WESTERN NORTH CAROLINA

CITY           SKY/WX    TMP DP  RH WIND       PRES   REMARKS
ASHEVILLE      CLEAR     65  50  58 N9G17     30.09R
JEFFERSON      CLEAR     59  48  65 NW8       30.11R
MORGANTON      PTCLDY    62  60  94 CALM      30.08R
HICKORY        CLEAR     70  53  54 NW3       30.02R
RUTHERFORDTON  PTCLDY    71  55  58 N5        30.03R
MOUNT AIRY     PTCLDY    70  55  60 N5        30.02R
BOONE          CLEAR     60  50  68 NW9       30.12R
$$

NCZ021-022-025-041-071-084-088-300300-
CENTRAL NORTH CAROLINA

CITY           SKY/WX    TMP DP  RH WIND       PRES   REMARKS
CHARLOTTE      PTCLDY    72  56  57 CALM      29.99R
GREENSBORO     PTCLDY    72  57  59 CALM      29.99R
WINSTON-SALEM  PTCLDY    70  58  65 CALM      30.01R
RALEIGH-DURHAM PTCLDY    68  61  78 CALM      29.99R
FORT BRAGG     CLEAR     73  64  73 CALM      29.97R
FAYETTEVILLE   CLEAR     73  62  68 NE3       29.97R
BURLINGTON     CLEAR     67  61  81 CALM      29.98R
LAURINBURG     CLEAR     71  61  70 CALM      29.98R
$$

NCZ011-015-027-028-043-044-047-080-103-300300-
NORTHEASTERN NORTH CAROLINA

CITY           SKY/WX    TMP DP  RH WIND       PRES   REMARKS
ROCKY MT-WILSO CLEAR     67  61  81 CALM      29.98R
GREENVILLE     PTCLDY    68  64  88 CALM      30.00R
WASHINGTON     MOCLDY    69  63  79 CALM      29.98R
ELIZABETH CITY CLEAR     70  63  78 E5        29.99R
MANTEO         NOT AVBL
CAPE HATTERAS  PTCLDY    75  65  70 E8        29.98R
$$

NCZ078-087-090-091-093-098-101-300300-
SOUTHEASTERN NORTH CAROLINA

CITY           SKY/WX    TMP DP  RH WIND       PRES   REMARKS
LUMBERTON      CLEAR     73  66  78 CALM      29.96R
GOLDSBORO      PTCLDY    71  64  79 CALM      29.96R
KENANSVILLE    PTCLDY    69  63  80 CALM      29.98R
NEW BERN       CLEAR     75  64  68 E5        29.98R
CHERRY POINT   MOCLDY    76  69  79 E9        29.98R
BEAUFORT       LGT RAIN  77  68  73 NE7       29.97R
JACKSONVILLE   PTCLDY    75  63  66 N6        29.96R
WILMINGTON     MOCLDY    73  70  90 NE5       29.97R
$$




USA.gov is the U.S. government's official web portal to all federal, state and local government web resources and services.